Location: Newark
(35.5485°N, 97.4150°W)
Time: 11:20:41
(UTC+00:00)

Envisat - Visible Passes

Search period start: 18 November 2019 00:00
Search period end: 28 November 2019 00:00
Orbit: 764 x 766 km, 98.1° (Epoch: 17 November)

Date Brightness Start Highest point End Pass type
(mag) Time Alt. Az. Time Alt. Az. Time Alt. Az.
18 Nov 4.4 01:09:51 10° SSW 01:14:35 39° W 01:19:20 10° NNW visible
19 Nov 2.9 00:32:42 10° SSE 00:37:46 86° ENE 00:42:52 10° NNW visible
19 Nov 3.5 23:56:32 10° SE 00:01:09 37° ENE 00:05:46 10° N visible
20 Nov 5.4 01:36:21 10° SW 01:40:12 22° W 01:44:05 10° NW visible
20 Nov 6.1 12:09:33 10° NE 12:12:37 16° E 12:15:40 10° SE visible
21 Nov 3.8 00:58:21 10° S 01:03:16 51° W 01:08:14 10° NNW visible
22 Nov 2.9 00:21:30 10° SSE 00:26:31 67° ENE 00:31:33 10° N visible
22 Nov 6.2 02:04:19 10° WSW 02:05:56 11° W 02:07:35 10° WNW visible
22 Nov 5.3 12:33:55 10° NE 12:38:18 29° E 12:42:41 10° SSE visible
22 Nov 3.8 23:45:38 10° SE 23:49:57 29° ENE 23:54:16 10° N visible
23 Nov 5.0 01:24:33 10° SSW 01:28:52 28° W 01:33:12 10° NW visible
23 Nov 6.3 11:59:18 10° ENE 12:01:14 12° E 12:03:11 10° ESE visible
24 Nov 3.3 00:46:57 10° S 00:51:59 67° WSW 00:57:03 10° NNW visible
25 Nov 3.1 00:10:23 10° SSE 00:15:17 52° ENE 00:20:12 10° N visible
25 Nov 5.9 01:51:40 10° SW 01:54:33 15° W 01:57:28 10° WNW visible
25 Nov 5.7 12:22:59 10° NE 12:26:58 23° E 12:30:55 10° SSE visible
26 Nov 4.5 01:12:54 10° SSW 01:17:32 36° W 01:22:12 10° NNW visible
27 Nov 3.0 00:35:38 10° SSE 00:40:42 86° WSW 00:45:49 10° NNW visible
